| time (UTC) | temp F | wind direction | speed knots | gust knots | rain 1hr in | rain 24hr in | rain mn in | humidity % | barometer mb |
| 20260509190023 | 61 | 306 | 1.7 | 0.0 | 0.00 | 0.00 | 0.00 | 28 | 1019.8 |
| 20260509185035 | 60 | 288 | 0.9 | 0.0 | 0.00 | 0.00 | 0.00 | 27 | 1019.7 |
| 20260509184033 | 60 | 294 | 2.6 | 0.0 | 0.00 | 0.00 | 0.00 | 26 | 1019.9 |
| 20260509183027 | 59 | 53 | 1.7 | 0.0 | 0.00 | 0.00 | 0.00 | 28 | 1019.6 |
| 20260509181036 | 59 | 294 | 1.7 | 0.0 | 0.00 | 0.00 | 0.00 | 31 | 1019.7 |
| 20260509180029 | 59 | 294 | 2.6 | 0.0 | 0.00 | 0.00 | 0.00 | 34 | 1019.9 |
| 20260509175026 | 59 | 302 | 1.7 | 0.0 | 0.00 | 0.00 | 0.00 | 31 | 1020.0 |
| 20260509174022 | 58 | 126 | 2.6 | 0.0 | 0.00 | 0.00 | 0.00 | 32 | 1020.1 |
| 20260509172028 | 57 | 273 | 2.6 | 0.0 | 0.00 | 0.00 | 0.00 | 35 | 1020.0 |
| 20260509171020 | 57 | 131 | 2.6 | 0.0 | 0.00 | 0.00 | 0.00 | 34 | 1020.2 |
| 20260509170021 | 58 | 221 | 1.7 | 0.0 | 0.00 | 0.00 | 0.00 | 35 | 1020.1 |
| 20260509165034 | 58 | 190 | 1.7 | 0.0 | 0.00 | 0.00 | 0.00 | 33 | 1020.0 |
| 20260509164030 | 58 | 279 | 1.7 | 0.0 | 0.00 | 0.00 | 0.00 | 34 | 1019.9 |
| 20260509163023 | 59 | 336 | 0.9 | 0.0 | 0.00 | 0.00 | 0.00 | 33 | 1020.2 |
| 20260509162017 | 58 | 221 | 1.7 | 0.0 | 0.00 | 0.00 | 0.00 | 37 | 1019.9 |
| 20260509161038 | 57 | 325 | 0.9 | 0.0 | 0.00 | 0.00 | 0.00 | 33 | 1019.8 |
| 20260509160034 | 57 | 345 | 0.9 | 0.0 | 0.00 | 0.00 | 0.00 | 35 | 1020.1 |
| 20260509155028 | 56 | 92 | 0.9 | 0.0 | 0.00 | 0.00 | 0.00 | 36 | 1019.4 |
| 20260509154022 | 56 | 302 | 0.9 | 0.0 | 0.00 | 0.00 | 0.00 | 38 | 1019.4 |
| 20260509153022 | 55 | 190 | 0.9 | 0.0 | 0.00 | 0.00 | 0.00 | 37 | 1019.5 |
| 20260509152036 | 56 | 226 | 0.9 | 0.0 | 0.00 | 0.00 | 0.00 | 34 | 1019.6 |
| 20260509151029 | 55 | 13 | 1.7 | 0.0 | 0.00 | 0.00 | 0.00 | 36 | 1019.7 |
| 20260509150023 | 54 | 252 | 1.7 | 0.0 | 0.00 | 0.00 | 0.00 | 36 | 1019.6 |
| 20260509145040 | 54 | 313 | 0.9 | 0.0 | 0.00 | 0.00 | 0.00 | 39 | 1019.6 |
| 20260509144036 | 54 | 240 | 0.9 | 0.0 | 0.00 | 0.00 | 0.00 | 36 | 1019.6 |
| 20260509143027 | 53 | 174 | 0.9 | 0.0 | 0.00 | 0.00 | 0.00 | 38 | 1019.5 |
| 20260509142037 | 53 | 5 | 0.9 | 0.0 | 0.00 | 0.00 | 0.00 | 39 | 1019.5 |
| 20260509141028 | 52 | 288 | 1.7 | 0.0 | 0.00 | 0.00 | 0.00 | 41 | 1019.6 |
| 20260509135033 | 51 | 96 | 2.6 | 0.0 | 0.00 | 0.00 | 0.00 | 43 | 1019.9 |
| 20260509134029 | 50 | 112 | 0.9 | 0.0 | 0.00 | 0.00 | 0.00 | 43 | 1019.8 |
| 20260509133040 | 49 | 14 | 0.0 | 0.0 | 0.00 | 0.00 | 0.00 | 46 | 1019.7 |
| 20260509131025 | 48 | 58 | 0.0 | 0.0 | 0.00 | 0.00 | 0.00 | 49 | 1019.8 |
| 20260509130037 | 45 | 249 | 0.0 | 0.0 | 0.00 | 0.00 | 0.00 | 52 | 1019.9 |
| 20260509125037 | 43 | 265 | 0.0 | 0.0 | 0.00 | 0.00 | 0.00 | 58 | 1019.9 |
| 20260509124033 | 41 | 265 | 0.0 | 0.0 | 0.00 | 0.00 | 0.00 | 59 | 1019.2 |
| 20260509123028 | 40 | 265 | 0.0 | 0.0 | 0.00 | 0.00 | 0.00 | 58 | 1019.9 |
| 20260509122023 | 40 | 154 | 0.0 | 0.0 | 0.00 | 0.00 | 0.00 | 57 | 1019.9 |
| 20260509121027 | 41 | 247 | 0.0 | 0.0 | 0.00 | 0.00 | 0.00 | 58 | 1019.8 |
| 20260509120022 | 41 | 247 | 0.0 | 0.0 | 0.00 | 0.00 | 0.00 | 57 | 1019.5 |
| 20260509115035 | 42 | 247 | 0.0 | 0.0 | 0.00 | 0.00 | 0.00 | 55 | 1019.4 |
| 20260509111018 | 45 | 247 | 0.0 | 0.0 | 0.00 | 0.00 | 0.00 | 52 | 1019.3 |
| 20260509110037 | 45 | 247 | 0.0 | 0.0 | 0.00 | 0.00 | 0.00 | 52 | 1019.4 |
| 20260509105030 | 45 | 247 | 0.9 | 0.0 | 0.00 | 0.00 | 0.00 | 52 | 1019.2 |
| 20260509104025 | 45 | 263 | 0.9 | 0.0 | 0.00 | 0.00 | 0.00 | 53 | 1019.0 |
| 20260509103036 | 44 | 257 | 0.0 | 0.0 | 0.00 | 0.00 | 0.00 | 53 | 1018.9 |
| 20260509102034 | 44 | 258 | 0.0 | 0.0 | 0.00 | 0.00 | 0.00 | 53 | 1019.0 |
| 20260509101028 | 44 | 267 | 0.9 | 0.0 | 0.00 | 0.00 | 0.00 | 53 | 1018.9 |
| 20260509095038 | 45 | 186 | 0.0 | 0.0 | 0.00 | 0.00 | 0.00 | 52 | 1019.0 |
| 20260509094029 | 45 | 235 | 0.0 | 0.0 | 0.00 | 0.00 | 0.00 | 53 | 1019.0 |
| 20260509093025 | 45 | 245 | 0.0 | 0.0 | 0.00 | 0.00 | 0.00 | 54 | 1019.1 |
| 20260509092039 | 45 | 294 | 0.0 | 0.0 | 0.00 | 0.00 | 0.00 | 55 | 1019.0 |
| 20260509090034 | 44 | 250 | 0.0 | 0.0 | 0.00 | 0.00 | 0.00 | 56 | 1018.3 |
| 20260509085027 | 44 | 195 | 0.0 | 0.0 | 0.00 | 0.00 | 0.00 | 57 | 1018.4 |
| 20260509084022 | 43 | 263 | 0.0 | 0.0 | 0.00 | 0.00 | 0.00 | 57 | 1018.4 |
| 20260509083019 | 44 | 263 | 0.0 | 0.0 | 0.00 | 0.00 | 0.00 | 55 | 1018.6 |
| 20260509082035 | 44 | 263 | 0.0 | 0.0 | 0.00 | 0.00 | 0.00 | 54 | 1018.7 |
| 20260509081030 | 45 | 263 | 0.0 | 0.0 | 0.00 | 0.00 | 0.00 | 53 | 1018.8 |
| 20260509080028 | 46 | 263 | 0.0 | 0.0 | 0.00 | 0.00 | 0.00 | 51 | 1018.9 |
| 20260509075020 | 46 | 263 | 0.0 | 0.0 | 0.00 | 0.00 | 0.00 | 51 | 1019.0 |
| 20260509074036 | 46 | 234 | 0.0 | 0.0 | 0.00 | 0.00 | 0.00 | 50 | 1019.1 |
| 20260509073034 | 47 | 234 | 0.0 | 0.0 | 0.00 | 0.00 | 0.00 | 50 | 1019.1 |
| 20260509072029 | 47 | 232 | 0.9 | 0.0 | 0.00 | 0.00 | 0.00 | 49 | 1019.2 |
| 20260509071022 | 47 | 221 | 0.0 | 0.0 | 0.00 | 0.00 | 0.00 | 48 | 1019.3 |
| 20260509070035 | 47 | 259 | 0.0 | 0.0 | 0.00 | 0.00 | 0.00 | 48 | 1019.4 |
| 20260509065033 | 48 | 259 | 0.0 | 0.0 | 0.00 | 0.00 | 0.00 | 48 | 1019.4 |
| 20260509064030 | 48 | 259 | 0.9 | 0.0 | 0.00 | 0.00 | 0.00 | 48 | 1019.5 |
| 20260509063022 | 48 | 290 | 0.0 | 0.0 | 0.00 | 0.00 | 0.00 | 48 | 1019.5 |
| 20260509061033 | 49 | 191 | 0.0 | 0.0 | 0.00 | 0.00 | 0.00 | 47 | 1019.3 |
| 20260509060025 | 49 | 246 | 0.0 | 0.0 | 0.00 | 0.00 | 0.00 | 46 | 1019.3 |
| 20260509055023 | 49 | 246 | 0.9 | 0.0 | 0.00 | 0.00 | 0.00 | 46 | 1019.2 |
| 20260509052027 | 47 | 275 | 0.0 | 0.0 | 0.00 | 0.00 | 0.00 | 48 | 1018.8 |
| 20260509050036 | 49 | 275 | 0.0 | 0.0 | 0.00 | 0.00 | 0.00 | 44 | 1019.0 |
| 20260509045033 | 50 | 275 | 0.0 | 0.0 | 0.00 | 0.00 | 0.00 | 44 | 1019.1 |
| 20260509044023 | 50 | 275 | 0.0 | 0.0 | 0.00 | 0.00 | 0.00 | 44 | 1019.2 |
| 20260509043036 | 49 | 275 | 0.0 | 0.0 | 0.00 | 0.00 | 0.00 | 44 | 1019.3 |
| 20260509042029 | 49 | 275 | 0.0 | 0.0 | 0.00 | 0.00 | 0.00 | 45 | 1019.4 |
| 20260509041041 | 49 | 275 | 0.0 | 0.0 | 0.00 | 0.00 | 0.00 | 44 | 1019.4 |
| 20260509040037 | 49 | 275 | 0.9 | 0.0 | 0.00 | 0.00 | 0.00 | 44 | 1019.3 |
| 20260509035030 | 50 | 275 | 0.0 | 0.0 | 0.00 | 0.00 | 0.00 | 44 | 1019.3 |
| 20260509034022 | 50 | 275 | 0.0 | 0.0 | 0.00 | 0.00 | 0.00 | 43 | 1019.2 |
| 20260509033038 | 50 | 275 | 0.0 | 0.0 | 0.00 | 0.00 | 0.00 | 43 | 1019.1 |
| 20260509032030 | 51 | 275 | 0.0 | 0.0 | 0.00 | 0.00 | 0.00 | 43 | 1019.1 |
| 20260509031029 | 51 | 275 | 0.0 | 0.0 | 0.00 | 0.00 | 0.00 | 42 | 1018.8 |
| 20260509030023 | 51 | 275 | 0.0 | 0.0 | 0.00 | 0.00 | 0.00 | 43 | 1018.7 |
| 20260509025040 | 51 | 275 | 0.0 | 0.0 | 0.00 | 0.00 | 0.00 | 42 | 1018.7 |
| 20260509024032 | 52 | 275 | 0.0 | 0.0 | 0.00 | 0.00 | 0.00 | 42 | 1018.7 |
| 20260509023032 | 52 | 275 | 0.0 | 0.0 | 0.00 | 0.00 | 0.00 | 42 | 1018.6 |
| 20260509022031 | 52 | 275 | 0.0 | 0.0 | 0.00 | 0.00 | 0.00 | 43 | 1018.6 |
| 20260509021022 | 53 | 275 | 0.0 | 0.0 | 0.00 | 0.00 | 0.00 | 42 | 1018.4 |
| 20260509020039 | 54 | 179 | 0.0 | 0.0 | 0.00 | 0.00 | 0.00 | 40 | 1018.3 |
| 20260509015032 | 54 | 278 | 0.0 | 0.0 | 0.00 | 0.00 | 0.00 | 40 | 1018.3 |
| 20260509014029 | 55 | 277 | 0.0 | 0.0 | 0.00 | 0.00 | 0.00 | 39 | 1018.4 |
| 20260509013024 | 56 | 277 | 0.0 | 0.0 | 0.00 | 0.00 | 0.00 | 38 | 1018.4 |
| 20260509012037 | 56 | 332 | 0.0 | 0.0 | 0.00 | 0.00 | 0.00 | 38 | 1018.5 |
| 20260509010028 | 58 | 276 | 0.0 | 0.0 | 0.00 | 0.00 | 0.00 | 36 | 1017.8 |
| 20260509005026 | 58 | 318 | 0.9 | 0.0 | 0.00 | 0.00 | 0.00 | 37 | 1017.8 |
| 20260509004038 | 58 | 285 | 0.9 | 0.0 | 0.00 | 0.00 | 0.00 | 36 | 1017.9 |
| 20260509002028 | 59 | 296 | 1.7 | 0.0 | 0.00 | 0.00 | 0.00 | 35 | 1017.9 |
| 20260509001022 | 60 | 341 | 1.7 | 0.0 | 0.00 | 0.00 | 0.00 | 35 | 1017.9 |
| 20260509000041 | 60 | 306 | 0.9 | 0.0 | 0.00 | 0.00 | 0.00 | 35 | 1018.1 |
| 20260508235033 | 60 | 343 | 1.7 | 0.0 | 0.00 | 0.00 | 0.00 | 36 | 1018.1 |
| 20260508233034 | 60 | 291 | 2.6 | 0.0 | 0.00 | 0.00 | 0.00 | 36 | 1018.1 |
| 20260508232030 | 60 | 321 | 1.7 | 0.0 | 0.00 | 0.00 | 0.00 | 37 | 1018.2 |
| 20260508230029 | 60 | 330 | 2.6 | 0.0 | 0.00 | 0.00 | 0.00 | 34 | 1018.2 |
| 20260508225022 | 61 | 360 | 1.7 | 0.0 | 0.00 | 0.00 | 0.00 | 35 | 1018.4 |
| 20260508224037 | 61 | 256 | 1.7 | 0.0 | 0.00 | 0.00 | 0.00 | 35 | 1018.3 |
| 20260508223032 | 62 | 296 | 2.6 | 0.0 | 0.00 | 0.00 | 0.00 | 34 | 1018.3 |
| 20260508222032 | 61 | 355 | 2.6 | 0.0 | 0.00 | 0.00 | 0.00 | 35 | 1018.2 |
| 20260508221024 | 61 | 28 | 2.6 | 0.0 | 0.00 | 0.00 | 0.00 | 35 | 1018.3 |
| 20260508215039 | 61 | 317 | 3.5 | 0.0 | 0.00 | 0.00 | 0.00 | 37 | 1018.4 |
| 20260508214033 | 61 | 315 | 2.6 | 0.0 | 0.00 | 0.00 | 0.00 | 35 | 1018.7 |
| 20260508211031 | 61 | 307 | 2.6 | 0.0 | 0.00 | 0.00 | 0.00 | 37 | 1018.9 |
| 20260508205025 | 61 | 336 | 1.7 | 0.0 | 0.00 | 0.00 | 0.00 | 35 | 1018.2 |
| 20260508204023 | 61 | 355 | 3.5 | 0.0 | 0.00 | 0.00 | 0.00 | 36 | 1018.2 |
| 20260508203033 | 61 | 5 | 2.6 | 0.0 | 0.00 | 0.00 | 0.00 | 37 | 1018.2 |
| 20260508202027 | 60 | 321 | 1.7 | 0.0 | 0.00 | 0.00 | 0.00 | 36 | 1018.4 |
| 20260508201040 | 60 | 285 | 1.7 | 0.0 | 0.00 | 0.00 | 0.00 | 36 | 1018.6 |
| 20260508195027 | 61 | 324 | 1.7 | 0.0 | 0.00 | 0.00 | 0.00 | 36 | 1019.1 |
| 20260508193021 | 60 | 5 | 0.9 | 0.0 | 0.00 | 0.00 | 0.00 | 39 | 1019.3 |
| 20260508192033 | 59 | 161 | 0.9 | 0.0 | 0.00 | 0.00 | 0.00 | 35 | 1019.2 |
| 20260508191029 | 60 | 326 | 1.7 | 0.0 | 0.00 | 0.00 | 0.00 | 42 | 1019.3 |